Location: Ústí nad Labem
(50.6611°N, 14.0531°E)
Time: 06:21:07
(UTC+02:00)

S-56A Canister/Altair - Pass Details

Date: 19 April 2024
Orbit: 638 x 2488 km, 38.9° (Epoch: 27 May)

Event Time Altitude Azimuth Distance (km) Brightness Sun altitude
Rises 21:31:13 0° 260° (W) 3,812 11.8 -12.7°
Reaches altitude 10° 21:33:47 10° 251° (WSW) 3,073 11.1 -13.0°
Maximum altitude 21:40:40 35° 188° (S) 2,237 9.6 -13.9°
Enters shadow 21:47:29 18° 137° (SE) 3,564 10.3 -14.7°
